Regional Weather Roundup
Issued by NWS

Home | Current Version | Previous Version | Graphics & Text | Print | Product List | Glossary On
Versions: 1 2 3 4 5 6 7 8 9 10 11 12 13 14 15 16 17 18 19 20 21 22 23 24 25 26 27 28 29 30 31 32 33 34 35 36 37 38 39 40 41 42 43 44 45 46 47 48 49 50
000
ASUS45 KSLC 061610
RWRUT

UTAH REGIONAL WEATHER ROUNDUP
NATIONAL WEATHER SERVICE SALT LAKE CITY UT
1000 AM MDT MON JUL 06 2015

UTZ001>011-023>025-061700-

NORTHERN UTAH

CITY           SKY/WX    TMP DP  RH WIND       PRES   REMARKS
BRIGHAM CITY   SUNNY     74  58  57 N3        30.14S
HILL AFB       SUNNY     76  58  53 E7        30.16R
LOGAN          SUNNY     72  56  57 NE5       30.15S
OGDEN          SUNNY     77  56  48 SE5       30.14R
PROVO AIRPORT  MOSUNNY   75  55  50 SE5       30.15S
SALT LAKE CITY MOSUNNY   81  58  45 CALM      30.11S
VERNAL         SUNNY     73  56  54 CALM      30.21R
WENDOVER       SUNNY     79  48  34 NW14G20   30.14S
HEBER CITY     MOSUNNY   70  50  49 CALM      30.22F
WEST JORDAN    SUNNY     79  55  44 CALM      30.15R

$$

UTZ012>022-026-027-061700-

SOUTHERN/CENTRAL UTAH

CITY           SKY/WX    TMP DP  RH WIND       PRES   REMARKS
BLANDING       CLOUDY    70  55  59 CALM      30.29R
BRYCE CANYON   CLOUDY    63  48  58 W10       30.38R
CEDAR CITY     MOSUNNY   73  48  41 S7        30.25R
DELTA          PTSUNNY   78  47  33 S9        30.16S
HANKSVILLE     PTSUNNY   73  61  64 CALM      30.16S
MILFORD        CLOUDY    75  47  36 S5        30.20R
MOAB/CYNLANDS  MOSUNNY   78  57  48 CALM      30.13S
PRICE          MOSUNNY   76  53  44 S5        30.22S
ST GEORGE      MOSUNNY   82  52  34 CALM      30.10S
KANAB          CLOUDY    72  55  56 S6        30.28S

$$

REGIONAL REPORTS     COLORADO/ARIZONA

CITY           SKY/WX    TMP DP  RH WIND       PRES   REMARKS
CRAIG, CO      MOSUNNY   64  56  75 CALM      30.29F
GRAND JUNCTION MOSUNNY   74  58  57 SE6       30.17F
RIFLE          CLOUDY    66  57  72 W7        30.25R
MONTROSE       SUNNY     70  54  56 CALM      30.25F
CORTEZ         MOSUNNY   73  53  49 SE5       30.21S
PAGE, AZ       CLOUDY    80  53  39 N7        30.14R
GRAND CANYON   CLOUDY    68  50  52 VRB5      30.32R
KINGMAN        MOSUNNY   84  53  34 SW17      30.13R
FLAGSTAFF      MOSUNNY   68  47  46 W8        30.35R

$$

REGIONAL REPORTS    NEVADA/IDAHO/WYOMING

CITY           SKY/WX    TMP DP  RH WIND       PRES   REMARKS
LAS VEGAS, NV  CLOUDY    87  55  33 SW7       29.98R
ELY            MOSUNNY   71  41  33 SE3       30.28R
ELKO           SUNNY     71  51  49 CALM      30.22S
POCATELLO, ID  PTSUNNY   71  55  56 SW7       30.18R
BURLEY         CLOUDY    71  52  50 CALM      30.15R
EVANSTON, WY   MOSUNNY   62  55  77 E12       30.32S
ROCK SPRINGS   PTSUNNY   62  53  72 E10       30.33S
KEMMERER       CLOUDY    61  52  72 E9        30.35S

$$



USA.gov is the U.S. government's official web portal to all federal, state and local government web resources and services.